[[{"header":{"parameterUnit":"m.s-1","parameterCategory":1,"la1":30.2991,"la2":30.254,"lo1":-89.0895,"lo2":-89.0444,"dy":0.0017,"dx":0.0017,"nx":28,"ny":28,"refTime":"2025-08-21T21:00:00:Z","depth":0,"parameterNumber":2,"parameterNumberName":"U-component_of_WINDS"},"data":[0,0,0,0,0,0,0,0,0,0,0,0,0,0,0,0,0,0,0,0,0,0,0,0,0,0,0,0,0,0,0,0,0,0,0,0,0,0,0,0,0,0,0,0,0,0,0,0,0,0,0,0,0,0,0,0,0,0,0.1359,0.1361,0,0.1482,0.1483,0.1485,0.1536,0.1536,0.1536,0.1536,0.1662,0.1665,0.1669,0,0,0,0,0,0,0,0,0,0,0,0,0,0.1171,0.1174,0.1359,0.1361,0.1362,0.1482,0.1483,0.1485,0.1536,0.1536,0.1536,0.1536,0.1661,0.1665,0.1669,0,0,0,0,0,0,0,0,0,0,0,0,0,0.1269,0.1175,0.1359,0.1402,0.1407,0.1481,0.1483,0.1485,0.1537,0.1536,0.1536,0.1536,0.1659,0.1664,0.167,0.1709,0,0,0.1686,0.1688,0,0,0,0,0,0,0,0,0.1263,0.1276,0.1394,0.1399,0.1405,0.1493,0.1463,0.1561,0.1537,0.1488,0.1536,0.1535,0.1606,0.1616,0.164,0.1715,0.1721,0.1687,0.169,0.1692,0.1694,0,0,0,0,0,0,0,0.1257,0.1271,0.1408,0.1396,0.1403,0.1416,0.143,0.1482,0.1547,0.1492,0.1496,0.151,0.1609,0.1634,0.1643,0.1723,0.1686,0.1691,0.1694,0.1697,0.1839,0.1839,0,0,0,0,0,0,0.1242,0.1265,0.1404,0.1411,0.1332,0.142,0.1435,0.1466,0.1547,0.1559,0.151,0.1512,0.1625,0.1637,0.1647,0.1701,0.1692,0.1697,0.17,0.1838,0.1839,0.184,0,0,0,0,0,0,0.1238,0.1254,0.1399,0.1339,0.1359,0.1423,0.1457,0.1468,0.1493,0.156,0.1572,0.1523,0.1625,0.164,0.1694,0.1706,0.1699,0.1704,0.1838,0.1839,0.1839,0.1806,0,0,0,0,0,0,0.1233,0.1253,0.1268,0.1339,0.1362,0.1443,0.1458,0.1471,0.1502,0.1506,0.1576,0.1588,0.1626,0.1686,0.1699,0.1713,0.1708,0.1837,0.1838,0.1839,0.1806,0.1806,0.1805,0,0,0,0,0,0.1226,0.1253,0.1268,0.1285,0.1382,0.1443,0.1456,0.15,0.1503,0.152,0.1563,0.1586,0.1702,0.1691,0.1707,0.1722,0.1836,0.1838,0.1839,0.1807,0.1806,0.1805,0,0,0,0,0,0,0.1182,0.1264,0.1281,0.1333,0.1381,0.1452,0.1474,0.1497,0.1545,0.1547,0.1599,0.1614,0.1664,0.1699,0.1685,0.1765,0.1771,0.1776,0.1741,0.1741,0.174,0.1731,0.1713,0,0,0,0,0,0.1178,0.122,0.129,0.1329,0.1352,0.1408,0.1437,0.1466,0.1518,0.1539,0.1586,0.1636,0.1684,0.1714,0.1762,0.1812,0.1828,0.183,0.1829,0.1828,0.1832,0.1862,0.1864,0.1844,0.1844,0.1844,0,0,0.1171,0.1221,0.1244,0.1321,0.1362,0.1405,0.1425,0.147,0.1503,0.1546,0.16,0.1636,0.1695,0.1747,0.1773,0.1778,0.1841,0.183,0.1829,0.1833,0.1863,0.1865,0.1867,0.1845,0.1845,0.1845,0,0,0.118,0.1221,0.1259,0.13,0.1361,0.1399,0.1408,0.1476,0.1502,0.1557,0.159,0.163,0.1711,0.1753,0.1784,0.181,0.1833,0.1824,0.182,0.1849,0.1851,0.1852,0.1863,0.1866,0.1827,0.1827,0.1827,0,0.1163,0.123,0.1275,0.1319,0.1352,0.1393,0.1432,0.1469,0.1543,0.1565,0.1569,0.1673,0.1715,0.1778,0.1785,0.1808,0.1821,0.1816,0.1847,0.1849,0.1851,0.1862,0.1865,0.1825,0.1826,0.1826,0.1826,0,0.1207,0.1252,0.1275,0.1346,0.1382,0.1422,0.1475,0.1506,0.1532,0.157,0.1626,0.1679,0.1738,0.1755,0.1781,0.1823,0.1824,0.1837,0.1844,0.1851,0.1862,0.1866,0.1823,0.1824,0.1824,0.1825,0,0,0.1191,0.1287,0.1295,0.1328,0.1399,0.1436,0.1479,0.1537,0.1563,0.1613,0.1651,0.1719,0.1732,0.1768,0.1799,0.1824,0.1842,0.1834,0.1836,0.1835,0.1892,0.1883,0.1887,0.1858,0.1859,0.186,0.1888,0,0.121,0.1289,0.1332,0.1393,0.1437,0.1477,0.1514,0.1562,0.1599,0.1641,0.1682,0.173,0.1742,0.1764,0.1791,0.1834,0.1855,0.1833,0.1895,0.1897,0.188,0.1892,0.1882,0.1906,0.1892,0.1893,0.1893,0,0.1243,0.1293,0.1358,0.1426,0.1446,0.1479,0.1537,0.1576,0.1632,0.1657,0.1697,0.1728,0.1776,0.1779,0.1846,0.183,0.1858,0.1884,0.1886,0.1894,0.1896,0.1901,0.1914,0.1918,0.19,0.19,0.1899,0,0.1227,0.131,0.136,0.1387,0.1467,0.1489,0.1524,0.1579,0.1612,0.1662,0.1684,0.174,0.177,0.1812,0.1858,0.1856,0.1921,0.1927,0.1944,0.1943,0.1956,0.1955,0.1975,0.1973,0.1973,0.1972,0.1972,0,0.1244,0.1283,0.1354,0.1385,0.143,0.1479,0.1522,0.156,0.1609,0.1648,0.1686,0.1722,0.178,0.1824,0.186,0.1911,0.1924,0.1946,0.1955,0.1943,0.194,0.1962,0.1962,0.1973,0.1973,0.1973,0.1973,0,0.1233,0.1282,0.134,0.1411,0.143,0.146,0.1521,0.1553,0.1591,0.1641,0.1655,0.1716,0.1769,0.1819,0.189,0.1914,0.1966,0.1977,0.1947,0.1952,0.1966,0.1965,0.2002,0.201,0.2001,0.2001,0.2001,0,0.1241,0.1272,0.1347,0.1376,0.141,0.1456,0.149,0.154,0.1574,0.1641,0.1665,0.1721,0.1769,0.1853,0.1903,0.1958,0.1972,0.1981,0.198,0.1968,0.1973,0.1971,0.1975,0.198,0.198,0.198,0.198,0,0.1251,0.1274,0.1322,0.1378,0.1417,0.1464,0.1512,0.1534,0.1593,0.1629,0.1685,0.1722,0.1795,0.1851,0.1912,0.1948,0.1974,0.198,0.1987,0.1975,0.1957,0.1968,0.1946,0.1979,0.1979,0.1979,0.1979,0.1979,0.1251,0.1281,0.1338,0.139,0.1432,0.1476,0.151,0.1553,0.16,0.1663,0.169,0.1746,0.1803,0.1887,0.1923,0.1968,0.1974,0.1984,0.1986,0.1988,0.1986,0.1949,0.198,0.198,0.198,0.198,0.198,0,0.1263,0.1303,0.135,0.1416,0.1457,0.1479,0.1533,0.1566,0.1615,0.1665,0.1712,0.1776,0.1831,0.1886,0.1944,0.1969,0.1983,0.1983,0.1982,0.199,0.1977,0.1966,0.1971,0.1971,0.1971,0.1971,0.1971,0.1971,0.1275,0.1327,0.1357,0.143,0.1469,0.1525,0.1554,0.1596,0.1636,0.1706,0.1752,0.1787,0.184,0.1902,0.1954,0.1969,0.1989,0.1985,0.2004,0.1991,0.1991,0.1991,0.1981,0.1989,0.1989,0.2013,0.2013,0.2013]},{"header":{"parameterUnit":"m.s-1","parameterCategory":1,"la1":30.2991,"la2":30.254,"lo1":-89.0895,"lo2":-89.0444,"dy":0.0017,"dx":0.0017,"nx":28,"ny":28,"refTime":"2025-08-21T21:00:00:Z","depth":0,"parameterNumber":3,"parameterNumberName":"V-component_of_WINDS"},"data":[0,0,0,0,0,0,0,0,0,0,0,0,0,0,0,0,0,0,0,0,0,0,0,0,0,0,0,0,0,0,0,0,0,0,0,0,0,0,0,0,0,0,0,0,0,0,0,0,0,0,0,0,0,0,0,0,0,0,0.999,0.9989,0,0.9969,0.9969,0.9968,0.9966,0.9966,0.9966,0.9967,0.9945,0.9945,0.9944,0,0,0,0,0,0,0,0,0,0,0,0,0,1.0026,1.0026,0.999,0.9989,0.9989,0.9969,0.9969,0.9968,0.9966,0.9966,0.9966,0.9967,0.9946,0.9945,0.9944,0,0,0,0,0,0,0,0,0,0,0,0,0,1.0008,1.0025,0.999,0.9985,0.9985,0.9969,0.9969,0.9968,0.9966,0.9966,0.9966,0.9967,0.9946,0.9945,0.9944,0.9931,0,0,0.994,0.994,0,0,0,0,0,0,0,0,1.0009,1.0007,0.9986,0.9986,0.9985,0.997,0.9974,0.9956,0.9966,0.9973,0.9967,0.9967,0.9953,0.9952,0.9947,0.993,0.9929,0.994,0.9939,0.9939,0.9939,0,0,0,0,0,0,0,1.0011,1.0008,0.9981,0.9986,0.9985,0.9984,0.9982,0.997,0.9962,0.9972,0.9972,0.997,0.9953,0.9948,0.9947,0.9928,0.994,0.9939,0.9938,0.9938,0.9899,0.9898,0,0,0,0,0,0,1.0013,1.0009,0.9982,0.9981,0.9998,0.9983,0.9981,0.9975,0.9962,0.996,0.997,0.997,0.995,0.9948,0.9946,0.9929,0.9939,0.9938,0.9937,0.9899,0.9899,0.9898,0,0,0,0,0,0,1.0013,1.001,0.9983,0.9995,0.9991,0.9982,0.9975,0.9974,0.9969,0.996,0.9958,0.9966,0.995,0.9947,0.9934,0.9929,0.9937,0.9936,0.9899,0.9899,0.9898,0.9897,0,0,0,0,0,0,1.0015,1.0011,1.0006,0.9995,0.9991,0.9972,0.9975,0.9974,0.9967,0.9967,0.9956,0.9955,0.995,0.9936,0.9933,0.9927,0.9935,0.99,0.9899,0.9899,0.9897,0.9896,0.9895,0,0,0,0,0,1.0016,1.0006,1.0006,1.0002,0.9984,0.9971,0.9969,0.9964,0.9967,0.9962,0.9956,0.9955,0.993,0.9935,0.9931,0.9925,0.99,0.9899,0.9899,0.9897,0.9896,0.9895,0,0,0,0,0,0,1.0017,1.0005,1.0004,0.999,0.9982,0.9971,0.9965,0.9963,0.9954,0.9954,0.9949,0.9946,0.9933,0.9928,0.9934,0.9912,0.9915,0.9914,0.9915,0.9914,0.9913,0.9915,0.9935,0,0,0,0,0,1.0015,1.0006,0.9996,0.9985,0.9981,0.9973,0.9968,0.9965,0.9956,0.9952,0.9945,0.9936,0.9926,0.992,0.991,0.9896,0.9894,0.989,0.9889,0.9889,0.9887,0.9879,0.9877,0.9895,0.9895,0.9895,0,0,1.0013,1.0005,0.9999,0.9985,0.9978,0.9968,0.997,0.996,0.9953,0.9951,0.9938,0.9932,0.9922,0.9908,0.9902,0.9903,0.9882,0.9887,0.9887,0.9886,0.9878,0.9876,0.9875,0.9895,0.9895,0.9895,0,0,1.0002,0.9995,0.9985,0.9978,0.9968,0.9963,0.9961,0.995,0.9946,0.9933,0.9931,0.9922,0.9905,0.9898,0.9892,0.9878,0.9877,0.9875,0.987,0.9862,0.9861,0.9859,0.9854,0.9852,0.9874,0.9874,0.9874,0,1.0,0.9985,0.998,0.997,0.9963,0.9961,0.995,0.9944,0.9931,0.9926,0.9928,0.9907,0.99,0.9884,0.9881,0.9876,0.9873,0.9877,0.9861,0.986,0.9859,0.9854,0.9852,0.9874,0.9874,0.9874,0.9874,0,0.9983,0.9972,0.9965,0.9953,0.9946,0.9935,0.9928,0.9922,0.9919,0.9914,0.9901,0.9892,0.988,0.9877,0.9874,0.986,0.9862,0.9862,0.9866,0.9857,0.9852,0.985,0.9874,0.9874,0.9874,0.9874,0,0,0.9972,0.9957,0.9954,0.9948,0.9936,0.9928,0.9918,0.9906,0.99,0.9892,0.9882,0.9868,0.9868,0.9862,0.9858,0.9851,0.9841,0.9853,0.9853,0.9851,0.9824,0.9824,0.9821,0.984,0.984,0.9839,0.9825,0,0.996,0.9941,0.9936,0.992,0.991,0.9907,0.9898,0.989,0.9884,0.9875,0.987,0.9859,0.9861,0.9857,0.985,0.9843,0.9835,0.9844,0.9831,0.9831,0.9833,0.9819,0.9818,0.9805,0.9823,0.9823,0.9823,0,0.9944,0.9934,0.9917,0.9906,0.9902,0.9893,0.9882,0.9874,0.9864,0.986,0.9853,0.985,0.9839,0.9843,0.9827,0.9833,0.9827,0.9823,0.9823,0.9821,0.9826,0.9817,0.9801,0.9799,0.982,0.982,0.982,0,0.9938,0.992,0.9908,0.9903,0.989,0.9884,0.9878,0.9868,0.9862,0.9852,0.9848,0.9837,0.9831,0.9822,0.9817,0.982,0.9801,0.9805,0.9797,0.9798,0.9793,0.9794,0.9776,0.979,0.979,0.979,0.979,0,0.9924,0.9914,0.9905,0.9897,0.9885,0.9879,0.9867,0.9861,0.9853,0.9844,0.9841,0.9832,0.9825,0.9816,0.9811,0.9798,0.9796,0.9792,0.9791,0.9793,0.9793,0.9789,0.9789,0.979,0.979,0.979,0.979,0,0.9915,0.9909,0.9895,0.9883,0.988,0.9872,0.9862,0.9854,0.9849,0.9837,0.9834,0.9825,0.9814,0.9807,0.9793,0.979,0.9775,0.9775,0.9779,0.9778,0.9771,0.9772,0.975,0.9747,0.9763,0.9763,0.9763,0,0.9907,0.9899,0.9887,0.988,0.9874,0.9864,0.9857,0.9851,0.9844,0.9832,0.9825,0.9814,0.9804,0.9786,0.9778,0.9767,0.9766,0.9759,0.9765,0.9766,0.9766,0.9766,0.9765,0.9758,0.9758,0.9758,0.9758,0,0.9894,0.9891,0.9881,0.9869,0.9861,0.9852,0.9843,0.9838,0.983,0.9823,0.9811,0.9803,0.9788,0.9777,0.9765,0.9759,0.9757,0.9757,0.9754,0.9755,0.9758,0.9756,0.9776,0.9757,0.9757,0.9757,0.9757,0.9757,0.9885,0.9877,0.9867,0.9856,0.9848,0.984,0.9832,0.9825,0.9815,0.9802,0.9799,0.9787,0.9777,0.9761,0.9755,0.9745,0.9746,0.9743,0.9742,0.9741,0.974,0.9759,0.9742,0.9742,0.9743,0.9743,0.9743,0,0.987,0.9864,0.9853,0.9841,0.9832,0.9831,0.9821,0.9814,0.9802,0.9793,0.9784,0.977,0.9759,0.975,0.9738,0.9732,0.9731,0.9729,0.9729,0.9728,0.974,0.9743,0.973,0.973,0.973,0.973,0.973,0.973,0.9862,0.9849,0.9844,0.9827,0.9821,0.9808,0.9802,0.9795,0.9787,0.9772,0.9762,0.9757,0.9748,0.9735,0.9725,0.9722,0.9718,0.9716,0.9714,0.9726,0.9727,0.9728,0.9731,0.9716,0.9716,0.9702,0.9702,0.9702]}]]